シューメーカー-リニア彗星

146P/Shoemaker-LINEAR (2016)

English version
Home page
Updated on January 17, 2017

---------------------------------------------------------------------

・ プロフィール

・ 写真集

・ 軌道要素

Epoch 2016 July 31.0 TT = JDT 2457600.5
T 2016 June 30.12774 TT                                 MPCW
q   1.4300885            (2000.0)            P               Q
n   0.12137158     Peri.  316.97757     +0.93962556     -0.13407991
a   4.0400932      Node    53.45406     +0.30229863     +0.75639986
e   0.6460259      Incl.   23.07269     -0.16037254     +0.64022014
P   8.12
From 18 observations 2008 Aug. 21-2016 May 4, mean residual 0".9.

・ 星図

・ 光度変化

        m1 =  9.5 + 5 logΔ + 30   log r(t + 15)  [  ,75]  (              〜2016年 9月13日)
        m1 = 13.5 + 5 logΔ + 15.0 log r          [75,  ]  (2016年 9月13日〜              )

---------------------------------------------------------------------

軌道要素はM.P.E.C. 2016-K18に掲載されたものです。
星図はステラナビゲータ Ver.8 (アストロアーツ) で作成したものです。
光度グラフはComet for Windowsで作成したものです。

---------------------------------------------------------------------

Copyright(C) Seiichi Yoshida (comet@aerith.net). All rights reserved.